Weather History for Yellowstone, WY

Change the Weather History Date:

Wednesday, November 14, 2012

  Actual Average Record
Temperature  
Mean Temperature 24 °F 23 °F  
Max Temperature 30 °F 34 °F 53 °F (1999)
Min Temperature 19 °F 13 °F -2 °F (2009)
Degree Days  
Heating Degree Days 40 42  
Month to date heating degree days 542  
Since 1 July heating degree days 2590  
Cooling Degree Days 0 0  
Month to date cooling degree days 0  
Year to date cooling degree days 0  
Moisture  
Dew Point 20 °F    
Average Humidity 83    
Maximum Humidity 89    
Minimum Humidity 69    
Precipitation  
Precipitation 0.04 in 0.07 in 0.20 in (2006)
Month to date precipitation 1.00  
Year to date precipitation 17.72  
Sea Level Pressure  
Sea Level Pressure 30.28 in    
Wind  
Wind Speed 3 mph (WNW)    
Max Wind Speed 8 mph    
Max Gust Speed 16 mph    
T = Trace of Precipitation, MM = Missing Value Source: NWS Daily Summary

Daily Weather History Graph

Daily Weather History Graph

Search for Another Location

Airport:

Trip Planner

Search our weather history database for the weather conditions in past years. The results will help you decide how hot, cold, wet, or windy it might be!

Date:

Astronomy

Nov. 14, 2012 Rise Set
Actual Time 7:17 AM MST 4:54 PM MST
Civil Twilight 6:46 AM MST 5:25 PM MST
Nautical Twilight 6:10 AM MST 6:01 PM MST
Astronomical Twilight 5:36 AM MST 6:35 PM MST
Moon 8:13 AM MST (11/14) 5:43 PM MST (11/14)
Length of Visible Light 10h 39m
Length of Day
9h 36m
New Moon, 1% of the Moon is Illuminated
Nov 14
New Moon
Nov 20
First Quarter
Nov 28
Full
Dec 6
Last Quarter
Dec 13
New

Hourly Weather History & Observations

Time (MST) Temp. Windchill Dew Point Humidity Pressure Visibility Wind Dir Wind Speed Gust Speed Precip Events Conditions
12:56 AM 25.0 °F 19.3 °F 21.0 °F 85% 30.26 in - Variable 4.6 mph - 0.01 in   Unknown
1:56 AM 25.0 °F 18.1 °F 21.0 °F 85% 30.26 in - Variable 5.8 mph - N/A   Unknown
2:56 AM 25.0 °F - 19.9 °F 81% 30.26 in - Calm Calm - N/A   Unknown
3:56 AM 24.1 °F - 21.0 °F 88% 30.26 in - Calm Calm - N/A   Unknown
4:56 AM 25.0 °F 19.3 °F 19.9 °F 81% 30.26 in - West 4.6 mph - N/A   Unknown
5:56 AM 24.1 °F - 19.9 °F 84% 30.26 in - Calm Calm - N/A   Unknown
6:56 AM 24.1 °F - 19.9 °F 84% 30.25 in - Calm Calm - N/A   Unknown
7:56 AM 24.1 °F - 21.0 °F 88% 30.26 in - Calm Calm - 0.01 in   Unknown
8:56 AM 25.0 °F 19.3 °F 21.0 °F 85% 30.25 in - Variable 4.6 mph - N/A   Unknown
9:56 AM 27.0 °F 23.0 °F 21.9 °F 81% 30.24 in - Variable 3.5 mph - 0.01 in   Unknown
10:56 AM 28.0 °F 21.7 °F 21.9 °F 78% 30.23 in - Variable 5.8 mph - 0.01 in   Unknown
11:56 AM 28.0 °F 22.8 °F 21.0 °F 75% 30.22 in - Variable 4.6 mph - N/A   Unknown
12:56 PM 28.9 °F 23.9 °F 21.9 °F 75% 30.22 in - Variable 4.6 mph - N/A   Unknown
1:56 PM 30.0 °F 22.4 °F 21.0 °F 69% 30.21 in - West 8.1 mph 16.1 mph N/A   Unknown
2:56 PM 30.0 °F 25.2 °F 21.9 °F 72% 30.22 in - Variable 4.6 mph - N/A   Unknown
3:56 PM 28.0 °F 22.8 °F 21.9 °F 78% 30.26 in - West 4.6 mph - N/A   Unknown
4:56 PM 27.0 °F 21.6 °F 21.0 °F 78% 30.26 in - WNW 4.6 mph - N/A   Unknown
5:56 PM 23.0 °F - 19.9 °F 88% 30.30 in - Calm Calm - N/A   Unknown
6:56 PM 19.9 °F - 17.1 °F 89% 30.35 in - Calm Calm - N/A   Unknown
7:56 PM 19.0 °F - 16.0 °F 88% 30.37 in - Calm Calm - N/A   Unknown
8:56 PM 21.9 °F - 19.0 °F 89% 30.36 in - Calm Calm - N/A   Unknown
9:56 PM 21.9 °F - 19.0 °F 89% 30.36 in - Calm Calm - N/A   Unknown
10:56 PM 23.0 °F - 19.0 °F 85% 30.36 in - Calm Calm - N/A   Unknown
11:56 PM 21.0 °F - 18.0 °F 88% 30.37 in - Calm Calm - N/A   Unknown